Time,TemperatureF,DewpointF,PressureIn,WindDirection,WindDirectionDegrees,WindSpeedMPH,WindSpeedGustMPH,Humidity,HourlyPrecipIn,Conditions,Clouds,dailyrainin,SolarRadiationWatts/m^2,SoftwareType,DateUTC
2013-02-16 00:02:00,21.0,20.0,-100.00,NE,48,12.0,17.0,94,0.00,,,0.00,0.000000,,2013-02-16 05:02:00,
2013-02-16 00:32:00,20.0,18.0,-100.00,NE,47,8.0,15.0,93,0.00,,,0.00,0.000000,,2013-02-16 05:32:00,
2013-02-16 00:42:00,20.0,18.0,-100.00,NE,47,8.0,15.0,93,0.00,,,0.00,0.000000,,2013-02-16 05:42:00,
2013-02-16 00:52:00,20.0,18.0,-100.00,NE,47,8.0,15.0,93,0.00,,,0.00,0.000000,,2013-02-16 05:52:00,
2013-02-16 01:02:00,20.0,18.0,-100.00,NE,47,8.0,15.0,93,0.00,,,0.00,0.000000,,2013-02-16 06:02:00,
2013-02-16 01:22:00,19.0,17.0,-100.00,ENE,57,6.0,12.0,93,0.00,,,0.00,0.000000,,2013-02-16 06:22:00,
2013-02-16 01:32:00,19.0,17.0,-100.00,ENE,57,6.0,12.0,93,0.00,,,0.00,0.000000,,2013-02-16 06:32:00,
2013-02-16 01:42:00,19.0,17.0,-100.00,ENE,57,6.0,12.0,93,0.00,,,0.00,0.000000,,2013-02-16 06:42:00,
2013-02-16 01:52:00,19.0,17.0,-100.00,ENE,57,6.0,12.0,93,0.00,,,0.00,0.000000,,2013-02-16 06:52:00,
2013-02-16 02:02:00,19.0,17.0,-100.00,ENE,57,6.0,12.0,93,0.00,,,0.00,0.000000,,2013-02-16 07:02:00,
2013-02-16 02:32:00,19.0,17.0,-100.00,NE,50,6.0,9.0,93,0.00,,,0.00,0.000000,,2013-02-16 07:32:00,
2013-02-16 02:42:00,19.0,17.0,-100.00,NE,50,6.0,9.0,93,0.00,,,0.00,0.000000,,2013-02-16 07:42:00,
2013-02-16 02:53:00,19.0,17.0,-100.00,NE,50,6.0,9.0,93,0.00,,,0.00,0.000000,,2013-02-16 07:53:00,
2013-02-16 03:01:00,19.0,17.0,-100.00,NE,50,6.0,9.0,93,0.00,,,0.00,0.000000,,2013-02-16 08:01:00,
2013-02-16 03:32:00,19.0,17.0,-100.00,NE,47,7.0,9.0,92,0.00,,,0.00,0.000000,,2013-02-16 08:32:00,
2013-02-16 03:42:00,19.0,17.0,-100.00,NE,47,7.0,9.0,92,0.00,,,0.00,0.000000,,2013-02-16 08:42:00,
2013-02-16 03:52:00,19.0,17.0,-100.00,NE,47,7.0,9.0,92,0.00,,,0.00,0.000000,,2013-02-16 08:52:00,
2013-02-16 04:02:00,19.0,17.0,-100.00,NE,47,7.0,9.0,92,0.00,,,0.00,0.000000,,2013-02-16 09:02:00,
2013-02-16 05:32:00,19.0,17.0,-100.00,NE,34,4.0,8.0,93,-99.99,,,0.00,0.000000,,2013-02-16 10:32:00,
2013-02-16 05:42:00,19.0,17.0,-100.00,NE,34,4.0,8.0,93,-99.99,,,0.00,0.000000,,2013-02-16 10:42:00,
2013-02-16 05:52:00,19.0,17.0,-100.00,NE,34,4.0,8.0,93,-99.99,,,0.00,0.000000,,2013-02-16 10:52:00,
2013-02-16 06:02:00,19.0,17.0,-100.00,NE,34,4.0,8.0,93,-99.99,,,0.00,0.000000,,2013-02-16 11:02:00,
2013-02-16 06:32:00,19.0,17.0,-100.00,North,355,2.0,7.0,92,0.00,,,0.00,0.000000,,2013-02-16 11:32:00,
2013-02-16 06:42:00,19.0,17.0,-100.00,North,355,2.0,7.0,92,0.00,,,0.00,0.000000,,2013-02-16 11:42:00,
2013-02-16 06:52:00,19.0,17.0,-100.00,North,355,2.0,7.0,92,0.00,,,0.00,0.000000,,2013-02-16 11:52:00,
2013-02-16 07:02:00,19.0,17.0,-100.00,North,355,2.0,7.0,92,0.00,,,0.00,0.000000,,2013-02-16 12:02:00,
2013-02-16 07:22:00,19.0,17.0,-100.00,NNE,33,2.0,5.0,92,0.00,,,0.00,0.000000,,2013-02-16 12:22:00,
2013-02-16 07:32:00,19.0,17.0,-100.00,NNE,33,2.0,5.0,92,0.00,,,0.00,0.000000,,2013-02-16 12:32:00,
2013-02-16 07:42:00,19.0,17.0,-100.00,NNE,33,2.0,5.0,92,0.00,,,0.00,0.000000,,2013-02-16 12:42:00,
2013-02-16 07:52:00,19.0,17.0,-100.00,NNE,33,2.0,5.0,92,0.00,,,0.00,0.000000,,2013-02-16 12:52:00,
2013-02-16 08:02:00,19.0,17.0,-100.00,NNE,33,2.0,5.0,92,0.00,,,0.00,0.000000,,2013-02-16 13:02:00,
2013-02-16 09:32:00,19.0,17.0,-100.00,NNE,32,3.0,5.0,92,-99.99,,,0.00,17.000000,,2013-02-16 14:32:00,
2013-02-16 09:42:00,19.0,17.0,-100.00,NNE,32,3.0,5.0,92,-99.99,,,0.00,17.000000,,2013-02-16 14:42:00,
2013-02-16 09:52:00,19.0,17.0,-100.00,NNE,32,3.0,5.0,92,-99.99,,,0.00,17.000000,,2013-02-16 14:52:00,
2013-02-16 10:02:00,19.0,17.0,-100.00,NNE,32,3.0,5.0,92,-99.99,,,0.00,17.000000,,2013-02-16 15:02:00,
2013-02-16 10:22:00,19.0,17.0,-100.00,NNE,29,3.0,5.0,91,0.00,,,0.00,24.000000,,2013-02-16 15:22:00,
2013-02-16 10:32:00,19.0,17.0,-100.00,NNE,29,3.0,5.0,91,0.00,,,0.00,24.000000,,2013-02-16 15:32:00,
2013-02-16 10:42:00,19.0,17.0,-100.00,NNE,29,3.0,5.0,91,0.00,,,0.00,24.000000,,2013-02-16 15:42:00,
2013-02-16 10:52:00,19.0,17.0,-100.00,NNE,29,3.0,5.0,91,0.00,,,0.00,24.000000,,2013-02-16 15:52:00,
2013-02-16 11:01:00,19.0,17.0,-100.00,NNE,29,3.0,5.0,91,0.00,,,0.00,24.000000,,2013-02-16 16:01:00,
2013-02-16 11:32:00,20.0,18.0,-100.00,NE,47,5.0,7.0,90,0.00,,,0.00,54.000000,,2013-02-16 16:32:00,
2013-02-16 11:42:00,20.0,18.0,-100.00,NE,47,5.0,7.0,90,0.00,,,0.00,54.000000,,2013-02-16 16:42:00,
2013-02-16 11:52:00,20.0,18.0,-100.00,NE,47,5.0,7.0,90,0.00,,,0.00,54.000000,,2013-02-16 16:52:00,
2013-02-16 12:01:00,20.0,18.0,-100.00,NE,47,5.0,7.0,90,0.00,,,0.00,54.000000,,2013-02-16 17:01:00,
2013-02-16 12:22:00,20.0,17.0,-100.00,NE,37,4.0,7.0,88,0.00,,,0.00,76.000000,,2013-02-16 17:22:00,
2013-02-16 12:32:00,20.0,17.0,-100.00,NE,37,4.0,7.0,88,0.00,,,0.00,76.000000,,2013-02-16 17:32:00,
2013-02-16 12:42:00,20.0,17.0,-100.00,NE,37,4.0,7.0,88,0.00,,,0.00,76.000000,,2013-02-16 17:42:00,
2013-02-16 12:52:00,20.0,17.0,-100.00,NE,37,4.0,7.0,88,0.00,,,0.00,76.000000,,2013-02-16 17:52:00,
2013-02-16 13:02:00,20.0,17.0,-100.00,NE,37,4.0,7.0,88,0.00,,,0.00,76.000000,,2013-02-16 18:02:00,
2013-02-16 13:33:00,20.0,17.0,-100.00,NNE,24,5.0,10.0,87,0.00,,,0.00,115.000000,,2013-02-16 18:33:00,
2013-02-16 13:42:00,20.0,17.0,-100.00,NNE,24,5.0,10.0,87,0.00,,,0.00,115.000000,,2013-02-16 18:42:00,
2013-02-16 13:52:00,20.0,17.0,-100.00,NNE,24,5.0,10.0,87,0.00,,,0.00,115.000000,,2013-02-16 18:52:00,
2013-02-16 14:02:00,20.0,17.0,-100.00,NNE,24,5.0,10.0,87,0.00,,,0.00,115.000000,,2013-02-16 19:02:00,
2013-02-16 14:32:00,19.0,16.0,-100.00,NW,320,4.0,11.0,86,0.00,,,0.00,117.000000,,2013-02-16 19:32:00,
2013-02-16 14:42:00,19.0,16.0,-100.00,NW,320,4.0,11.0,86,0.00,,,0.00,117.000000,,2013-02-16 19:42:00,
2013-02-16 14:52:00,19.0,16.0,-100.00,NW,320,4.0,11.0,86,0.00,,,0.00,117.000000,,2013-02-16 19:52:00,
2013-02-16 15:01:00,19.0,16.0,-100.00,NW,320,4.0,11.0,86,0.00,,,0.00,117.000000,,2013-02-16 20:01:00,
2013-02-16 15:32:00,17.0,14.0,-100.00,NNE,16,5.0,11.0,87,0.00,,,0.00,74.000000,,2013-02-16 20:32:00,
2013-02-16 15:42:00,17.0,14.0,-100.00,NNE,16,5.0,11.0,87,0.00,,,0.00,74.000000,,2013-02-16 20:42:00,
2013-02-16 15:52:00,17.0,14.0,-100.00,NNE,16,5.0,11.0,87,0.00,,,0.00,74.000000,,2013-02-16 20:52:00,
2013-02-16 16:02:00,17.0,14.0,-100.00,NNE,16,5.0,11.0,87,0.00,,,0.00,74.000000,,2013-02-16 21:02:00,
2013-02-16 16:32:00,18.0,15.0,-100.00,NNE,23,5.0,13.0,87,0.00,,,0.00,60.000000,,2013-02-16 21:32:00,
2013-02-16 16:42:00,18.0,15.0,-100.00,NNE,23,5.0,13.0,87,0.00,,,0.00,60.000000,,2013-02-16 21:42:00,
2013-02-16 16:52:00,18.0,15.0,-100.00,NNE,23,5.0,13.0,87,0.00,,,0.00,60.000000,,2013-02-16 21:52:00,
2013-02-16 17:01:00,18.0,15.0,-100.00,NNE,23,5.0,13.0,87,0.00,,,0.00,60.000000,,2013-02-16 22:01:00,
2013-02-16 17:32:00,17.0,14.0,-100.00,NNE,24,4.0,11.0,86,0.00,,,-99.99,66.000000,,2013-02-16 22:32:00,
2013-02-16 17:42:00,17.0,14.0,-100.00,NNE,24,4.0,11.0,86,0.00,,,-99.99,66.000000,,2013-02-16 22:42:00,
2013-02-16 17:52:00,17.0,14.0,-100.00,NNE,24,4.0,11.0,86,0.00,,,-99.99,66.000000,,2013-02-16 22:52:00,
2013-02-16 18:02:00,17.0,14.0,-100.00,NNE,24,4.0,11.0,86,0.00,,,-99.99,66.000000,,2013-02-16 23:02:00,
2013-02-16 18:32:00,11.0,8.0,-100.00,NNE,18,4.0,11.0,88,0.00,,,0.00,11.000000,,2013-02-16 23:32:00,
2013-02-16 18:42:00,11.0,8.0,-100.00,NNE,18,4.0,11.0,88,0.00,,,0.00,11.000000,,2013-02-16 23:42:00,
2013-02-16 18:52:00,11.0,8.0,-100.00,NNE,18,4.0,11.0,88,0.00,,,0.00,11.000000,,2013-02-16 23:52:00,
2013-02-16 19:02:00,11.0,8.0,-100.00,NNE,18,4.0,11.0,88,0.00,,,0.00,11.000000,,2013-02-17 00:02:00,
2013-02-16 19:22:00,10.0,7.0,-100.00,NNE,18,5.0,14.0,87,0.00,,,0.00,0.000000,,2013-02-17 00:22:00,
2013-02-16 19:32:00,10.0,7.0,-100.00,NNE,18,5.0,14.0,87,0.00,,,0.00,0.000000,,2013-02-17 00:32:00,
2013-02-16 19:42:00,10.0,7.0,-100.00,NNE,18,5.0,14.0,87,0.00,,,0.00,0.000000,,2013-02-17 00:42:00,
2013-02-16 19:52:00,10.0,7.0,-100.00,NNE,18,5.0,14.0,87,0.00,,,0.00,0.000000,,2013-02-17 00:52:00,
2013-02-16 20:01:00,10.0,7.0,-100.00,NNE,18,5.0,14.0,87,0.00,,,0.00,0.000000,,2013-02-17 01:01:00,
2013-02-16 20:32:00,10.0,7.0,-100.00,NNE,31,6.0,13.0,87,0.00,,,0.00,0.000000,,2013-02-17 01:32:00,
2013-02-16 20:42:00,10.0,7.0,-100.00,NNE,31,6.0,13.0,87,0.00,,,0.00,0.000000,,2013-02-17 01:42:00,
2013-02-16 20:52:00,10.0,7.0,-100.00,NNE,31,6.0,13.0,87,0.00,,,0.00,0.000000,,2013-02-17 01:52:00,
2013-02-16 21:01:00,10.0,7.0,-100.00,NNE,31,6.0,13.0,87,0.00,,,0.00,0.000000,,2013-02-17 02:01:00,
2013-02-16 21:32:00,9.0,6.0,-100.00,NNW,341,4.0,14.0,87,0.00,,,0.00,0.000000,,2013-02-17 02:32:00,
2013-02-16 21:42:00,9.0,6.0,-100.00,NNW,341,4.0,14.0,87,0.00,,,0.00,0.000000,,2013-02-17 02:42:00,
2013-02-16 21:52:00,9.0,6.0,-100.00,NNW,341,4.0,14.0,87,0.00,,,0.00,0.000000,,2013-02-17 02:52:00,
2013-02-16 22:02:00,9.0,6.0,-100.00,NNW,341,4.0,14.0,87,0.00,,,0.00,0.000000,,2013-02-17 03:02:00,
2013-02-16 22:21:00,9.0,6.0,-100.00,NNE,23,6.0,16.0,86,0.00,,,0.00,0.000000,,2013-02-17 03:21:00,
2013-02-16 22:32:00,9.0,6.0,-100.00,NNE,23,6.0,16.0,86,0.00,,,0.00,0.000000,,2013-02-17 03:32:00,
2013-02-16 22:42:00,9.0,6.0,-100.00,NNE,23,6.0,16.0,86,0.00,,,0.00,0.000000,,2013-02-17 03:42:00,
2013-02-16 22:52:00,9.0,6.0,-100.00,NNE,23,6.0,16.0,86,0.00,,,0.00,0.000000,,2013-02-17 03:52:00,
2013-02-16 23:01:00,9.0,6.0,-100.00,NNE,23,6.0,16.0,86,0.00,,,0.00,0.000000,,2013-02-17 04:01:00,
2013-02-16 23:32:00,7.0,3.0,-100.00,NNW,330,4.0,15.0,85,0.00,,,0.00,0.000000,,2013-02-17 04:32:00,
2013-02-16 23:42:00,7.0,3.0,-100.00,NNW,330,4.0,15.0,85,0.00,,,0.00,0.000000,,2013-02-17 04:42:00,
2013-02-16 23:52:00,7.0,3.0,-100.00,NNW,330,4.0,15.0,85,0.00,,,0.00,0.000000,,2013-02-17 04:52:00,